Stevens Point, WI

7:42 PM CDT on August 16, 2017 (GMT -0500)
Stevens Point Municipal

Weather History for KSTE - March, 2014

Change the Weather History Date:

Saturday, March 22, 2014

  Actual Average Record
Temperature  
Mean Temperature 23 °F -  
Max Temperature 32 °F 41 °F 71 °F (2012)
Min Temperature 13 °F 21 °F -2 °F (1989)
Degree Days  
Heating Degree Days 42    
Moisture  
Dew Point 12 °F    
Average Humidity 62    
Maximum Humidity 82    
Minimum Humidity 45    
Precipitation  
Precipitation 0.00 in - - ()
Sea Level Pressure  
Sea Level Pressure 30.16 in    
Wind  
Wind Speed 10 mph (NW)    
Max Wind Speed 15 mph    
Max Gust Speed 24 mph    
Visibility 10 miles    
Events      
Averages and records for this station are not official NWS values.
T = Trace of Precipitation, MM = Missing Value Source: NWS Daily Summary

Daily Weather History Graph

Daily Weather History Graph

Search for Another Location

Airport or City:

Trip Planner

Search our weather history database for the weather conditions in past years. The results will help you decide how hot, cold, wet, or windy it might be!

Date:

Astronomy

Mar. 22, 2014 Rise Set
Actual Time 6:57 AM CDT 7:13 PM CDT
Civil Twilight 6:28 AM CDT 7:42 PM CDT
Nautical Twilight 5:54 AM CDT 8:16 PM CDT
Astronomical Twilight 5:19 AM CDT 8:51 PM CDT
Moon 12:43 AM CDT (3/22) 10:29 AM CDT (3/22)
Length of Visible Light 13h 13m
Length of Day
12h 15m
Waning Gibbous, 65% of the Moon is Illuminated
Mar 22
Waning Gibbous
Mar 23
Last Quarter
Mar 30
New
Apr 7
First Quarter
Apr 15
Full

Hourly Weather History & Observations

Time (CDT) Temp. Windchill Dew Point Humidity Pressure Visibility Wind Dir Wind Speed Gust Speed Precip Events Conditions
12:15 AM 33.4 °F 25.9 °F 28.0 °F 81% 29.87 in 10.0 mi NW 9.2 mph - N/A   Overcast
12:35 AM 32.9 °F 25.3 °F 27.1 °F 79% 29.88 in 10.0 mi NW 9.2 mph 20.7 mph N/A   Overcast
12:55 AM 32.5 °F 22.7 °F 26.1 °F 77% 29.89 in 10.0 mi NNW 13.8 mph 21.9 mph N/A   Scattered Clouds
1:15 AM 32.7 °F 26.4 °F 25.7 °F 75% 29.91 in 10.0 mi NW 6.9 mph - N/A   Mostly Cloudy
1:35 AM 32.9 °F 25.9 °F 25.7 °F 75% 29.93 in 10.0 mi WNW 8.1 mph 16.1 mph N/A   Overcast
1:55 AM 32.9 °F 25.3 °F 25.7 °F 75% 29.93 in 10.0 mi NW 9.2 mph 17.3 mph N/A   Overcast
2:15 AM 32.5 °F 25.5 °F 25.5 °F 75% 29.95 in 10.0 mi NW 8.1 mph - N/A   Overcast
2:35 AM 32.5 °F 24.8 °F 25.3 °F 75% 29.95 in 10.0 mi WNW 9.2 mph 21.9 mph N/A   Overcast
2:55 AM 32.4 °F 24.0 °F 25.2 °F 75% 29.96 in 10.0 mi NW 10.4 mph 18.4 mph N/A   Overcast
3:15 AM 32.2 °F 25.0 °F 25.3 °F 76% 29.96 in 10.0 mi WNW 8.1 mph 16.1 mph N/A   Overcast
3:35 AM 32.0 °F 23.6 °F 25.5 °F 77% 29.97 in 10.0 mi NW 10.4 mph 17.3 mph N/A   Overcast
3:55 AM 32.0 °F 23.0 °F 25.9 °F 78% 29.98 in 10.0 mi WNW 11.5 mph 17.3 mph N/A   Overcast
4:15 AM 31.3 °F 20.7 °F 26.2 °F 82% 29.98 in 10.0 mi NW 15.0 mph 20.7 mph N/A   Light Freezing Rain
4:35 AM 30.6 °F 19.8 °F 25.3 °F 81% 29.98 in 10.0 mi NW 15.0 mph 21.9 mph N/A   Overcast
4:55 AM 29.8 °F 19.3 °F 24.6 °F 81% 30.00 in 10.0 mi WNW 13.8 mph 19.6 mph N/A   Overcast
5:15 AM 29.3 °F 20.8 °F 23.9 °F 80% 30.01 in 10.0 mi WNW 9.2 mph 19.6 mph N/A   Overcast
5:35 AM 28.9 °F 21.1 °F 23.0 °F 78% 30.02 in 10.0 mi NW 8.1 mph 20.7 mph N/A   Overcast
5:55 AM 28.4 °F 19.7 °F 22.1 °F 77% 30.03 in 10.0 mi WNW 9.2 mph 17.3 mph N/A   Overcast
6:15 AM 27.7 °F 16.1 °F 21.0 °F 76% 30.04 in 10.0 mi NW 15.0 mph 20.7 mph N/A   Overcast
6:35 AM 26.6 °F 16.8 °F 20.1 °F 77% 30.06 in 10.0 mi NNW 10.4 mph 23.0 mph N/A   Overcast
6:55 AM 26.4 °F 15.5 °F 19.8 °F 76% 30.07 in 10.0 mi NNW 12.7 mph 17.3 mph N/A   Overcast
7:15 AM 26.2 °F 15.2 °F 19.4 °F 75% 30.08 in 10.0 mi NW 12.7 mph 21.9 mph N/A   Overcast
7:35 AM 25.5 °F 14.9 °F 18.5 °F 75% 30.09 in 10.0 mi WNW 11.5 mph 20.7 mph N/A   Overcast
7:55 AM 24.4 °F 12.4 °F 16.9 °F 73% 30.11 in 10.0 mi NW 13.8 mph 20.7 mph N/A   Overcast
8:15 AM 23.9 °F 12.9 °F 16.0 °F 72% 30.12 in 10.0 mi NW 11.5 mph 16.1 mph N/A   Overcast
8:35 AM 23.2 °F 11.4 °F 14.0 °F 68% 30.14 in 10.0 mi NW 12.7 mph 18.4 mph N/A   Overcast
8:55 AM 22.1 °F 9.5 °F 12.9 °F 68% 30.15 in 10.0 mi NNW 13.8 mph 20.7 mph N/A   Overcast
9:15 AM 21.6 °F 9.3 °F 11.1 °F 64% 30.16 in 10.0 mi NW 12.7 mph 18.4 mph N/A   Overcast
9:35 AM 21.2 °F 9.5 °F 10.8 °F 64% 30.17 in 10.0 mi NW 11.5 mph 20.7 mph N/A   Overcast
9:55 AM 21.2 °F 8.3 °F 10.8 °F 64% 30.18 in 10.0 mi NW 13.8 mph 18.4 mph N/A   Overcast
10:15 AM 21.6 °F 8.8 °F 9.3 °F 59% 30.19 in 10.0 mi NNW 13.8 mph 20.7 mph N/A   Mostly Cloudy
10:35 AM 21.9 °F 10.4 °F 9.3 °F 58% 30.20 in 10.0 mi NNW 11.5 mph 16.1 mph N/A   Scattered Clouds
10:55 AM 22.5 °F 12.4 °F 9.5 °F 58% 30.20 in 10.0 mi NNW 9.2 mph 12.7 mph N/A   Mostly Cloudy
11:15 AM 22.5 °F 12.4 °F 10.4 °F 60% 30.20 in 10.0 mi West 9.2 mph 16.1 mph N/A   Mostly Cloudy
11:35 AM 22.3 °F 10.8 °F 9.0 °F 57% 30.21 in 10.0 mi NW 11.5 mph 17.3 mph N/A   Overcast
11:55 AM 22.1 °F 11.3 °F 10.0 °F 60% 30.22 in 10.0 mi WNW 10.4 mph 19.6 mph N/A   Overcast
12:15 PM 22.3 °F 12.2 °F 9.3 °F 58% 30.22 in 10.0 mi WNW 9.2 mph - N/A   Mostly Cloudy
12:35 PM 22.5 °F 11.1 °F 9.1 °F 57% 30.22 in 10.0 mi WNW 11.5 mph 16.1 mph N/A   Mostly Cloudy
12:55 PM 21.7 °F 10.2 °F 8.8 °F 57% 30.22 in 10.0 mi West 11.5 mph 17.3 mph N/A   Mostly Cloudy
1:15 PM 22.1 °F 10.6 °F 8.4 °F 56% 30.23 in 10.0 mi WNW 11.5 mph 18.4 mph N/A   Mostly Cloudy
1:35 PM 21.9 °F 9.2 °F 7.5 °F 54% 30.22 in 10.0 mi NW 13.8 mph 24.2 mph N/A   Scattered Clouds
1:55 PM 22.5 °F 11.7 °F 7.3 °F 52% 30.22 in 10.0 mi NW 10.4 mph 16.1 mph N/A   Scattered Clouds
2:15 PM 22.3 °F 11.5 °F 7.5 °F 53% 30.22 in 10.0 mi NW 10.4 mph 19.6 mph N/A   Scattered Clouds
2:35 PM 22.8 °F 13.6 °F 7.3 °F 52% 30.23 in 10.0 mi WNW 8.1 mph 18.4 mph N/A   Scattered Clouds
2:55 PM 22.3 °F 11.5 °F 6.1 °F 50% 30.22 in 10.0 mi WNW 10.4 mph 19.6 mph N/A   Mostly Cloudy
3:15 PM 23.0 °F 11.1 °F 5.9 °F 48% 30.22 in 10.0 mi NNW 12.7 mph 20.7 mph N/A   Scattered Clouds
3:35 PM 22.6 °F 12.6 °F 4.3 °F 45% 30.23 in 10.0 mi WNW 9.2 mph 18.4 mph N/A   Clear
3:55 PM 22.6 °F 13.4 °F 5.9 °F 49% 30.23 in 10.0 mi NW 8.1 mph 20.7 mph N/A   Scattered Clouds
4:15 PM 23.0 °F 11.1 °F 5.5 °F 47% 30.24 in 10.0 mi West 12.7 mph 19.6 mph N/A   Scattered Clouds
4:35 PM 22.1 °F 10.6 °F 5.0 °F 48% 30.24 in 10.0 mi WNW 11.5 mph 19.6 mph N/A   Mostly Cloudy
4:55 PM 22.1 °F 9.5 °F 5.2 °F 48% 30.24 in 10.0 mi West 13.8 mph 18.4 mph N/A   Scattered Clouds
5:15 PM 21.9 °F 11.0 °F 5.2 °F 49% 30.25 in 10.0 mi NW 10.4 mph 18.4 mph N/A   Clear
5:35 PM 21.6 °F 11.3 °F 5.0 °F 49% 30.25 in 10.0 mi West 9.2 mph 16.1 mph N/A   Clear
5:55 PM 21.0 °F 9.3 °F 5.0 °F 50% 30.26 in 10.0 mi West 11.5 mph 17.3 mph N/A   Clear
6:15 PM 20.8 °F 9.0 °F 4.8 °F 50% 30.27 in 10.0 mi West 11.5 mph 18.4 mph N/A   Scattered Clouds
6:35 PM 20.3 °F 9.0 °F 3.7 °F 49% 30.28 in 10.0 mi WNW 10.4 mph 16.1 mph N/A   Clear
6:55 PM 19.9 °F 9.3 °F 2.8 °F 48% 30.29 in 10.0 mi WNW 9.2 mph 18.4 mph N/A   Clear
7:15 PM 19.4 °F 8.6 °F 3.4 °F 50% 30.30 in 10.0 mi WNW 9.2 mph - N/A   Clear
7:35 PM 18.9 °F 8.8 °F 3.2 °F 51% 30.30 in 10.0 mi WNW 8.1 mph - N/A   Clear
7:55 PM 18.3 °F 10.2 °F 3.2 °F 52% 30.31 in 10.0 mi WNW 5.8 mph - N/A   Clear
8:15 PM 18.0 °F 8.7 °F 3.2 °F 53% 30.32 in 10.0 mi WNW 6.9 mph - N/A   Clear
8:35 PM 17.6 °F 8.2 °F 3.2 °F 53% 30.33 in 10.0 mi WNW 6.9 mph - N/A   Clear
8:55 PM 17.1 °F 7.6 °F 2.8 °F 54% 30.33 in 10.0 mi WNW 6.9 mph - N/A   Clear
9:15 PM 16.7 °F 8.3 °F 3.0 °F 55% 30.33 in 10.0 mi WNW 5.8 mph - N/A   Clear
9:35 PM 16.5 °F 6.9 °F 2.7 °F 55% 30.34 in 10.0 mi WNW 6.9 mph - N/A   Clear
9:55 PM 16.0 °F 6.3 °F 2.7 °F 56% 30.34 in 10.0 mi NW 6.9 mph - N/A   Clear
10:15 PM 15.8 °F 7.2 °F 2.3 °F 55% 30.35 in 10.0 mi NW 5.8 mph - N/A   Clear
10:35 PM 15.3 °F 6.6 °F 2.3 °F 57% 30.35 in 10.0 mi NNW 5.8 mph - N/A   Clear
10:55 PM 14.9 °F 5.0 °F 1.9 °F 57% 30.35 in 10.0 mi NW 6.9 mph - N/A   Clear
11:15 PM 14.2 °F 4.1 °F 2.1 °F 59% 30.37 in 10.0 mi NNW 6.9 mph - N/A   Clear
11:35 PM 13.6 °F 0.0 °F 2.3 °F 61% 30.37 in 10.0 mi NNW 11.5 mph 16.1 mph N/A   Clear
11:55 PM 13.1 °F 1.8 °F 2.1 °F 62% 30.38 in 10.0 mi NNW 8.1 mph - N/A   Clear